Location: Bear Trap Landing
(45.2437°N, 67.7928°W)
Time: 16:53:16
(UTC+00:00)

ISS - Pass Details

Date: 11 March 2021
Orbit: 418 x 421 km, 51.6° (Epoch: 21 April)

Event Time Altitude Azimuth Distance (km) Brightness Sun altitude
Exits shadow 10:11:08 11° 270° (W) 1,468 -1.7 -7.8°
Maximum altitude 10:13:27 19° 225° (SW) 1,080 -2.1 -7.4°
Drops below altitude 10° 10:15:51 10° 178° (S) 1,490 -1.0 -7.0°
Sets 10:18:21 0° 160° (SSE) 2,349 0.3 -6.5°
